User: anonymous   Login
Location: Most
(50.5330°N, 13.6500°E)
Time: 05:25:35
(UTC+02:00)
Language:

ISS - Orbit

View from above orbital plane
View from above orbital plane
View from above satellite
View from above satellite

Ground track
Ground track

The orbit data is extracted from the following two-line orbital elements,

1 25544U 98067A   22268.84044201  .00009393  00000-0  17066-3 0  9990
2 25544  51.6422 197.9112 0002361 293.1996 162.8355 15.50281995360793
Epoch (UTC): 25 September 2022 20:10:14
Eccentricity: 0.0002361
inclination: 51.6422°
perigee height: 414 km
apogee height: 417 km
right ascension of ascending node: 197.9112°
argument of perigee: 293.1996°
revolutions per day: 15.50281995
mean anomaly at epoch: 162.8355°
orbit number at epoch: 36079

The dashed part of the orbit path shows where the satellite is in the earth's shadow,  

DLR